Flag for Germany Weather past 2 weeks in Neubrandenburg, Mecklenburg-Western Pomerania, Germany

Now
46 °F

Rain. Overcast.


Feels Like: 42 °F
Forecast: 40 / 52 °F
Wind: 6 mph from North

Location: Greifswald

Current Time: Apr 27, 2015 at 1:37:17 PM

Latest Report: Apr 27, 2015 at 1:00 PM


Visibility: 7 mi

Pressure: 29.70 "Hg

Humidity: 93%

Dew point: 44 °F

Location of NeubrandenburgLocation

Historic Weather in Neubrandenburg — Graph

°F

Neubrandenburg temperature yesterday

Maximum temperature yesterday: 62 °F (at 4:00 PM)
Minimum temperature yesterday: 51 °F (at 10:00 PM)
Average temperature yesterday: 55 °F

Past Weeks' High & Low Weather Summary

 TemperatureHumidityPressure
High69 °F (Apr 15, 4:00 PM)100% (Apr 25, 3:00 AM)30.33 "Hg (Apr 25, 3:00 AM)
Low35 °F (Apr 18, 6:00 AM)37% (Apr 12, 3:00 PM)29.67 "Hg (Apr 27, 6:00 AM)
Average49 °F71%30.05 "Hg
* Reported Apr 12 12:00 Noon — Apr 27 12:00 Noon, Neubrandenburg, Weather by CustomWeather, © 2015

Note: Actual official high and low records may vary slightly from our data, if they occured in-between our weather recording intervals... More about our weather records

Advertising

Neubrandenburg weather history for previous 24 hours

 ConditionsComfort  
Time TempWeatherWind HumidityBarometerVisibility
12:00 PM
Mon, Apr 27
46 °FRain. Low clouds.6 mph95%29.68 "Hg7 mi
10:00 AM46 °FRain. Low clouds.5 mph95%29.68 "Hg5 mi
9:00 AM46 °FRain. Low clouds.5 mph99%29.68 "Hg4 mi
8:00 AM45 °FRain. Low clouds.5 mph97%29.68 "Hg4 mi
7:00 AM45 °FRain. Low clouds.3 mph96%29.69 "Hg2 mi
6:00 AM46 °FLow clouds.3 mph96%29.67 "Hg4 mi
4:00 AM47 °FOvercast.2 mph95%29.69 "Hg5 mi
3:00 AM47 °FFog.2 mph95%29.70 "Hg4 mi
2:00 AM47 °FFog.2 mph96%29.70 "Hg4 mi
1:00 AM47 °FFog.2 mph97%29.71 "Hg2 mi
12:00 AM48 °FFog.2 mph98%29.70 "Hg2 mi
10:00 PM
Sun, Apr 26
51 °FThunderstorms. Passing clouds.1 mph96%29.69 "Hg2 mi
9:00 PM52 °FThundershowers. Overcast.3 mph92%29.69 "Hg3 mi
8:00 PM56 °FOvercast.1 mph85%29.68 "Hg7 mi
7:00 PM58 °FOvercast.1 mph79%29.68 "Hg9 mi
6:00 PM60 °FSprinkles. Overcast.2 mph66%29.69 "Hg4 mi
4:00 PM62 °FPartly sunny.3 mph61%29.70 "Hg22 mi
3:00 PM60 °FOvercast.3 mph64%29.72 "Hg22 mi
2:00 PM60 °FOvercast.3 mph64%29.72 "Hg14 mi
1:00 PM59 °FOvercast.3 mph65%29.73 "Hg16 mi
Weather by CustomWeather, © 2015

See weather overviewHow to use our weather pages